[ hide orbit diagram ]
For accurate long-term ephemerides, please instead use our Horizons system.This orbit viewer was implemented using two-body methods, and hence should not be used for determining accurate long-term trajectories (over several years or decades) or planetary encounter circumstances.
Orbital Elements at Epoch 2459000.5 (2020-May-31.0) TDB
Reference: JPL 17 (heliocentric ecliptic J2000)
Element | Value | Uncertainty (1-sigma) | Units |
e | .07897895000416191 | 6.2179e-08 | |
a | 3.11887095475272 | 4.336e-08 | au |
q | 2.872545801547873 | 2.0295e-07 | au |
i | 10.86353966049587 | 7.0565e-06 | deg |
node | 191.7522462826759 | 2.8841e-05 | deg |
peri | 331.5172358974568 | 4.7404e-05 | deg |
M | 191.0403120420123 | 3.9947e-05 | deg |
tp | 2459944.724214729235 (2022-Dec-31.22421473) | 0.00023153 | TDB |
period | 2011.845082165675 5.51 | 4.1955e-05 1.149e-07 | d yr |
n | .1789402192004136 | 3.7316e-09 | deg/d |
Q | 3.365196107957568 | 4.6785e-08 | au |
|
| | Orbit Determination Parameters
Additional Information
|
[ show covariance matrix ]
Physical Parameter Table
Parameter |
Symbol |
Value |
Units |
Sigma |
Reference |
Notes |
absolute magnitude |
H |
16.1 |
|
n/a |
MPO413517 |
|
|
452117 (2014 RM24) Discovered 2001-Apr-23 by Spacewatch at Kitt Peak |
Reference: | Last Updated: 2015-11-30 |
|
[ show close-approach data ]
Alternate Designations
2014 RM24 = 2001 HQ14 = 2009 TC24 |
|
|